period_start,C,m1,H,J0,J1,J2,J3,J4,J5,JA,JB,JC,JD,JJ,JK,JN,#
2015-09-01 00:04:30,0.02,0.07,0.00,23.80,28.35,31.07,14.30,48.42,1008.10,2035.53,3416.44,3241.37,3539.96,599.96,589.44,16.22,0000 0000 0000 0000 000000
2015-09-01 00:09:31,0.00,0.07,0.00,23.76,28.35,31.13,14.38,48.46,1007.85,2035.28,3415.59,3240.91,3539.15,599.93,589.32,16.27,0000 0000 0000 0000 000000
2015-09-01 00:14:32,0.05,0.07,0.00,23.76,28.35,31.09,14.36,48.59,1007.83,2035.25,3414.82,3240.10,3538.59,599.86,589.16,16.32,0000 0000 0000 0000 000000
2015-09-01 00:19:34,0.03,0.07,0.00,23.78,28.36,31.04,14.39,48.54,1007.84,2035.42,3413.95,3239.89,3537.98,600.22,589.53,16.37,0000 0000 0000 0000 000000
2015-09-01 00:24:35,0.02,0.07,0.00,23.77,28.37,31.08,14.31,48.56,1007.83,2035.27,3413.02,3239.09,3537.17,599.79,589.21,16.42,0000 0000 0000 0000 000000
2015-09-01 00:29:36,0.05,0.07,0.00,23.79,28.37,31.13,14.35,48.42,1007.83,2035.33,3412.11,3238.49,3536.61,599.98,589.30,16.47,0000 0000 0000 0000 000000
2015-09-01 00:34:38,0.03,0.08,0.00,23.82,28.37,31.12,14.40,48.63,1007.83,2035.39,3411.28,3237.97,3535.99,600.09,589.34,16.52,0000 0000 0000 0000 000000
2015-09-01 00:39:39,0.03,0.08,0.00,23.81,28.37,31.12,14.40,48.48,1007.83,2035.24,3410.26,3237.16,3535.15,600.03,589.29,16.57,0000 0000 0000 0000 000000
2015-09-01 00:44:40,0.03,0.08,0.00,23.80,28.39,31.13,14.39,48.43,1007.80,2035.14,3409.34,3236.68,3534.44,599.86,589.19,16.63,0000 0000 0000 0000 000000
2015-09-01 00:49:42,0.03,0.08,0.00,23.80,28.40,31.16,14.46,48.46,1007.78,2035.17,3408.47,3236.01,3533.87,600.21,589.47,16.68,0000 0000 0000 0000 000000
2015-09-01 00:54:43,0.05,0.08,0.00,23.82,28.40,31.20,14.40,48.51,1007.82,2035.15,3407.52,3235.25,3533.06,599.94,589.17,16.73,0000 0000 0000 0000 000000
2015-09-01 00:59:44,0.02,0.09,0.00,23.81,28.40,31.19,14.40,48.56,1007.76,2035.18,3406.61,3234.83,3532.28,600.15,589.31,16.78,0000 0000 0000 0000 000000
2015-09-01 01:04:45,0.04,0.09,0.00,23.84,28.42,31.20,14.33,48.55,1007.57,2035.18,3405.75,3234.07,3531.75,599.70,588.63,16.83,0000 0000 0000 0000 000000
2015-09-01 01:09:47,0.03,0.09,0.00,23.83,28.42,31.19,14.38,48.41,1007.49,2035.07,3404.75,3233.43,3530.97,599.97,589.04,16.88,0000 0000 0000 0000 000000
2015-09-01 01:14:48,0.03,0.09,0.00,23.82,28.42,31.17,14.40,48.38,1007.37,2035.05,3403.76,3232.94,3530.10,600.35,589.39,16.93,0000 0000 0000 0000 000000
2015-09-01 01:19:49,0.04,0.09,0.00,23.82,28.42,31.23,14.39,48.38,1007.35,2035.02,3402.88,3232.12,3529.36,599.99,588.92,16.98,0000 0000 0000 0000 000000
2015-09-01 01:24:50,0.04,0.10,0.00,23.85,28.44,31.18,14.29,48.47,1007.35,2035.01,3401.92,3231.53,3528.63,599.56,588.53,17.03,0000 0000 0000 0000 000000
2015-09-01 01:29:51,0.02,0.10,0.00,23.87,28.45,31.14,14.32,48.53,1007.34,2035.01,3400.93,3230.96,3527.97,599.81,588.77,17.08,0000 0000 0000 0000 000000
2015-09-01 01:34:52,0.05,0.10,0.00,23.84,28.45,31.26,14.44,48.52,1007.34,2035.00,3399.94,3230.13,3527.13,600.07,588.96,17.13,0000 0000 0000 0000 000000
2015-09-01 01:39:53,0.03,0.10,0.00,23.88,28.45,31.21,14.38,48.48,1007.34,2035.01,3399.05,3229.67,3526.47,600.34,589.06,17.18,0000 0000 0000 0000 000000
2015-09-01 01:44:54,0.03,0.10,0.00,23.87,28.46,31.20,14.31,48.41,1007.33,2035.00,3398.11,3229.01,3525.84,599.95,588.98,17.23,0000 0000 0000 0000 000000
2015-09-01 01:49:56,0.05,0.11,0.00,23.88,28.47,31.26,14.39,48.52,1007.13,2035.01,3397.18,3228.27,3525.03,600.10,588.88,17.28,0000 0000 0000 0000 000000
2015-09-01 01:54:57,0.04,0.11,0.00,23.90,28.47,31.34,14.34,48.48,1006.93,2035.00,3396.15,3227.66,3524.17,599.90,588.54,17.33,0000 0000 0000 0000 000000
2015-09-01 01:59:58,0.04,0.11,0.00,23.91,28.47,31.24,14.33,48.48,1006.91,2035.00,3395.03,3226.93,3523.32,600.14,588.57,17.38,0000 0000 0000 0000 000000
2015-09-01 02:05:00,0.04,0.11,0.00,23.89,28.47,31.24,14.35,48.58,1006.89,2035.00,3394.12,3226.10,3522.68,599.75,588.19,17.43,0000 0000 0000 0000 000000
2015-09-01 02:10:01,0.02,0.11,0.00,23.90,28.49,31.26,14.37,48.68,1006.86,2035.00,3393.45,3225.90,3521.90,599.88,588.41,17.48,0000 0000 0000 0000 000000
2015-09-01 02:15:02,0.05,0.12,0.00,23.92,28.50,31.31,14.36,48.58,1006.85,2035.00,3392.43,3225.08,3521.05,599.80,588.30,17.53,0000 0000 0000 0000 000000
2015-09-01 02:20:03,0.05,0.12,0.00,23.91,28.50,31.29,14.36,48.65,1006.85,2034.99,3391.24,3224.24,3520.14,599.88,588.48,17.58,0000 0000 0000 0000 000000
2015-09-01 02:25:05,0.04,0.12,0.00,23.90,28.50,31.33,14.40,48.62,1006.85,2034.99,3390.35,3223.64,3519.40,599.69,588.22,17.63,0000 0000 0000 0000 000000
2015-09-01 02:30:06,0.03,0.12,0.00,23.90,28.52,31.32,14.37,48.58,1006.86,2034.97,3389.23,3222.91,3518.60,600.02,588.71,17.68,0000 0000 0000 0000 000000
2015-09-01 02:35:07,0.04,0.13,0.00,23.92,28.52,31.41,14.46,48.53,1006.85,2034.97,3388.27,3222.10,3517.85,600.01,588.50,17.73,0000 0000 0000 0000 000000
2015-09-01 02:40:08,0.05,0.13,0.00,23.93,28.52,31.44,14.29,48.42,1006.85,2034.98,3387.13,3221.39,3517.04,599.69,588.21,17.78,0000 0000 0000 0000 000000
2015-09-01 02:45:10,0.05,0.13,0.00,23.94,28.53,31.46,14.35,48.67,1006.85,2034.97,3386.03,3220.61,3516.14,599.52,587.97,17.83,0000 0000 0000 0000 000000
2015-09-01 02:50:11,0.03,0.13,0.00,23.95,28.55,31.44,14.32,48.65,1006.86,2034.95,3384.97,3219.94,3515.33,599.65,588.14,17.88,0000 0000 0000 0000 000000
2015-09-01 02:55:12,0.05,0.14,0.00,23.96,28.55,31.47,14.45,48.55,1006.86,2034.97,3383.91,3219.12,3514.56,600.01,588.48,17.93,0000 0000 0000 0000 000000
2015-09-01 03:00:13,0.05,0.14,0.00,23.97,28.55,31.46,14.36,48.55,1006.85,2034.96,3382.79,3218.33,3513.64,599.77,588.25,17.98,0000 0000 0000 0000 000000
2015-09-01 03:05:14,0.03,0.14,0.00,23.97,28.57,31.47,14.38,48.48,1006.85,2034.94,3381.75,3217.71,3512.86,599.95,588.36,18.03,0000 0000 0000 0000 000000
2015-09-01 03:10:15,0.04,0.14,0.00,23.97,28.57,31.47,14.37,48.39,1006.85,2034.93,3380.67,3216.95,3512.00,600.07,588.50,18.08,0000 0000 0000 0000 000000
2015-09-01 03:15:17,0.04,0.14,0.00,23.99,28.57,31.51,14.39,48.69,1006.85,2034.90,3379.67,3216.12,3511.12,599.93,588.32,18.13,0000 0000 0000 0000 000000
2015-09-01 03:20:18,0.04,0.15,0.00,23.99,28.58,31.50,14.34,48.70,1006.85,2034.91,3378.64,3215.60,3510.39,599.85,588.17,18.18,0000 0000 0000 0000 000000
2015-09-01 03:25:19,0.03,0.15,0.00,23.97,28.60,31.52,14.34,48.68,1006.85,2034.84,3377.52,3214.83,3509.43,600.12,588.44,18.23,0000 0000 0000 0000 000000
2015-09-01 03:30:21,0.03,0.15,0.00,23.98,28.60,31.54,14.32,48.52,1006.85,2034.61,3376.42,3213.97,3508.52,599.48,587.93,18.28,0000 0000 0000 0000 000000
2015-09-01 03:35:22,0.03,0.15,0.00,24.02,28.60,31.54,14.31,48.63,1006.85,2034.47,3375.38,3213.13,3507.68,599.24,587.51,18.33,0000 0000 0000 0000 000000
2015-09-01 03:40:24,0.04,0.16,0.00,24.00,28.61,31.56,14.40,48.58,1006.85,2034.41,3374.28,3212.49,3506.77,600.54,588.73,18.38,0000 0000 0000 0000 000000
2015-09-01 03:45:25,0.04,0.16,0.00,24.02,28.62,31.56,14.36,48.58,1006.85,2034.23,3373.09,3211.63,3505.73,599.75,588.17,18.43,0000 0000 0000 0000 000000
2015-09-01 03:50:26,0.04,0.16,0.00,24.02,28.62,31.57,14.37,48.60,1006.84,2034.11,3371.80,3210.73,3504.75,599.71,588.00,18.48,0000 0000 0000 0000 000000
2015-09-01 03:55:28,0.04,0.16,0.00,24.02,28.62,31.58,14.41,48.57,1006.74,2034.04,3370.62,3209.92,3503.84,600.45,588.69,18.53,0000 0000 0000 0000 000000
2015-09-01 04:00:29,0.05,0.16,0.00,24.02,28.64,31.58,14.38,48.67,1006.55,2034.06,3369.54,3209.10,3502.95,600.19,588.31,18.58,0000 0000 0000 0000 000000
2015-09-01 04:05:30,0.05,0.17,0.00,24.02,28.65,31.60,14.27,48.63,1006.40,2034.05,3368.53,3208.39,3502.02,599.96,587.89,18.63,0000 0000 0000 0000 000000
2015-09-01 04:10:31,0.05,0.17,0.00,24.03,28.65,31.60,14.41,48.70,1006.38,2034.03,3367.35,3207.53,3501.06,599.70,587.70,18.68,0000 0000 0000 0000 000000
2015-09-01 04:15:33,0.07,0.17,0.00,24.06,28.65,31.59,14.29,48.63,1006.38,2034.00,3366.00,3206.31,3499.77,600.15,588.17,18.73,0000 0000 0000 0000 000000
2015-09-01 04:20:34,0.05,0.18,0.00,24.07,28.67,31.61,14.37,48.64,1006.37,2034.00,3364.68,3205.50,3498.61,600.11,588.07,18.78,0000 0000 0000 0000 000000
2015-09-01 04:25:35,0.05,0.18,0.00,24.07,28.67,31.62,14.32,48.54,1006.37,2034.00,3363.51,3204.62,3497.67,599.94,588.13,18.83,0000 0000 0000 0000 000000
2015-09-01 04:30:36,0.06,0.18,0.00,24.06,28.67,31.63,14.37,48.63,1006.40,2034.00,3362.20,3203.55,3496.51,599.92,587.85,18.88,0000 0000 0000 0000 000000
2015-09-01 04:35:37,0.07,0.19,0.00,24.08,28.69,31.64,14.36,48.67,1006.54,2034.00,3360.76,3202.51,3495.29,600.15,588.13,18.93,0000 0000 0000 0000 000000
2015-09-01 04:40:39,0.06,0.19,0.00,24.12,28.70,31.65,14.38,48.67,1006.68,2033.99,3359.40,3201.35,3494.06,600.03,588.05,18.98,0000 0000 0000 0000 000000
2015-09-01 04:45:40,0.06,0.19,0.00,24.13,28.70,31.63,14.35,48.77,1006.71,2033.99,3358.05,3200.39,3492.86,600.25,588.24,19.03,0000 0000 0000 0000 000000
2015-09-01 04:50:41,0.07,0.20,0.00,24.14,28.70,31.65,14.34,48.68,1006.83,2033.99,3356.70,3199.25,3491.63,599.97,588.00,19.08,0000 0000 0000 0000 000000
2015-09-01 04:55:42,0.06,0.20,0.00,24.15,28.72,31.64,14.32,48.83,1006.81,2033.99,3355.42,3198.30,3490.42,599.87,587.85,19.13,0000 0000 0000 0000 000000
2015-09-01 05:00:43,0.05,0.20,0.00,24.17,28.72,31.66,14.37,48.77,1006.81,2033.99,3354.31,3197.35,3489.47,600.11,588.14,19.18,0000 0000 0000 0000 000000
2015-09-01 05:05:45,0.04,0.20,0.00,24.20,28.73,31.67,14.30,48.73,1006.82,2033.99,3353.46,3196.68,3488.66,599.96,587.95,19.23,0000 0000 0000 0000 000000
2015-09-01 05:10:46,0.04,0.21,0.00,24.20,28.75,31.68,14.32,48.67,1006.85,2033.99,3352.54,3195.91,3487.80,600.18,588.10,19.29,0000 0000 0000 0000 000000
2015-09-01 05:15:48,0.04,0.21,0.00,24.22,28.75,31.68,14.33,48.62,1006.85,2033.99,3351.73,3195.09,3487.01,599.89,587.82,19.34,0000 0000 0000 0000 000000
2015-09-01 05:20:49,0.04,0.21,0.00,24.25,28.76,31.68,14.38,48.65,1006.85,2033.98,3350.91,3194.56,3486.20,600.06,587.88,19.39,0000 0000 0000 0000 000000
2015-09-01 05:25:50,0.03,0.21,0.00,24.27,28.77,31.70,14.40,48.50,1006.83,2033.98,3350.03,3193.86,3485.39,600.10,587.93,19.44,0000 0000 0000 0000 000000
2015-09-01 05:30:51,0.04,0.21,0.00,24.30,28.77,31.69,14.37,48.58,1006.85,2033.97,3349.10,3193.06,3484.68,599.89,587.63,19.49,0000 0000 0000 0000 000000
2015-09-01 05:35:52,0.04,0.22,0.00,24.30,28.80,31.69,14.38,48.49,1006.85,2033.93,3348.25,3192.34,3483.87,600.09,587.77,19.54,0000 0000 0000 0000 000000
2015-09-01 05:40:53,0.03,0.22,0.00,24.30,28.80,31.70,14.34,48.59,1006.85,2033.94,3347.46,3191.81,3483.06,600.28,587.89,19.59,0000 0000 0000 0000 000000
2015-09-01 05:45:54,0.05,0.22,0.00,24.32,28.80,31.69,14.33,48.70,1006.80,2033.91,3346.58,3191.05,3482.21,600.10,587.97,19.64,0000 0000 0000 0000 000000
2015-09-01 05:50:55,0.04,0.22,0.00,24.34,28.81,31.70,14.34,48.69,1006.64,2033.93,3345.80,3190.40,3481.62,600.19,587.71,19.69,0000 0000 0000 0000 000000
2015-09-01 05:55:56,0.04,0.22,0.00,24.37,28.82,31.71,14.34,48.55,1006.57,2033.87,3344.80,3189.67,3480.77,599.78,587.16,19.74,0000 0000 0000 0000 000000
2015-09-01 06:00:57,0.02,0.23,0.00,24.39,28.82,31.71,14.36,48.52,1006.51,2033.69,3343.75,3188.88,3479.83,600.07,587.47,19.79,0000 0000 0000 0000 000000
2015-09-01 06:05:58,0.05,0.23,0.00,24.40,28.83,31.72,14.37,48.53,1006.39,2033.61,3342.70,3188.04,3478.89,600.17,587.40,19.84,0000 0000 0000 0000 000000
2015-09-01 06:11:00,0.06,0.23,0.00,24.40,28.84,31.72,14.41,48.52,1006.37,2033.52,3341.58,3187.15,3477.85,599.97,587.12,19.89,0000 0000 0000 0000 000000
2015-09-01 06:16:01,0.03,0.23,0.00,24.42,28.85,31.73,14.32,48.52,1006.36,2033.34,3340.39,3186.24,3476.85,600.06,587.32,19.94,0000 0000 0000 0000 000000
2015-09-01 06:21:02,0.04,0.23,0.00,24.42,28.85,31.73,14.28,48.46,1006.36,2033.21,3339.37,3185.45,3475.93,599.97,587.27,19.99,0000 0000 0000 0000 000000
2015-09-01 06:26:04,0.03,0.24,0.00,24.45,28.85,31.73,14.28,48.64,1006.36,2033.09,3338.34,3184.66,3474.99,599.73,587.11,20.04,0000 0000 0000 0000 000000
2015-09-01 06:31:05,0.04,0.24,0.00,24.46,28.85,31.73,14.33,48.59,1006.36,2033.10,3337.30,3183.95,3474.08,599.94,587.13,20.09,0000 0000 0000 0000 000000
2015-09-01 06:36:06,0.05,0.24,0.00,24.47,28.87,31.74,14.34,48.54,1006.36,2033.13,3336.25,3183.07,3473.14,600.17,587.27,20.14,0000 0000 0000 0000 000000
2015-09-01 06:41:07,0.05,0.24,0.00,24.48,28.87,31.75,14.24,48.60,1006.37,2033.05,3335.01,3182.15,3472.08,599.79,586.87,20.19,0000 0000 0000 0000 000000
2015-09-01 06:46:09,0.05,0.25,0.00,24.49,28.87,31.75,14.31,48.63,1006.38,2033.06,3333.87,3181.25,3471.10,600.01,587.13,20.24,0000 0000 0000 0000 000000
2015-09-01 06:51:10,0.05,0.25,0.00,24.51,28.87,31.75,14.29,48.69,1006.39,2033.03,3332.83,3180.48,3470.17,599.71,586.72,20.29,0000 0000 0000 0000 000000
2015-09-01 06:56:12,0.05,0.25,0.00,24.54,28.87,31.76,14.43,48.70,1006.45,2033.02,3331.72,3179.69,3469.22,600.18,587.26,20.34,0000 0000 0000 0000 000000
2015-09-01 07:01:13,0.04,0.26,0.00,24.55,28.88,31.76,14.37,48.56,1006.69,2033.02,3330.57,3178.94,3468.24,600.23,587.36,20.39,0000 0000 0000 0000 000000
2015-09-01 07:06:15,0.05,0.26,0.00,24.57,28.89,31.74,14.28,48.52,1006.85,2033.02,3329.47,3178.04,3467.29,599.91,587.09,20.44,0000 0000 0000 0000 000000
2015-09-01 07:11:16,0.05,0.26,0.00,24.60,28.90,31.75,14.33,48.56,1006.85,2033.01,3328.35,3177.14,3466.31,600.23,587.35,20.49,0000 0000 0000 0000 000000
2015-09-01 07:16:17,0.05,0.26,0.00,24.61,28.90,31.75,14.34,48.57,1006.84,2033.00,3327.17,3176.15,3465.23,599.99,587.05,20.54,0000 0000 0000 0000 000000
2015-09-01 07:21:18,0.05,0.27,0.00,24.63,28.90,31.75,14.26,48.45,1006.83,2033.00,3326.20,3175.41,3464.30,599.85,586.94,20.59,0000 0000 0000 0000 000000
2015-09-01 07:26:20,0.05,0.27,0.00,24.66,28.90,31.75,14.25,48.65,1006.84,2033.00,3324.96,3174.53,3463.33,599.60,586.69,20.64,0000 0000 0000 0000 000000
2015-09-01 07:31:21,0.05,0.27,0.00,24.67,28.92,31.76,14.42,48.67,1006.82,2033.00,3323.87,3173.69,3462.33,600.32,587.33,20.69,0000 0000 0000 0000 000000
2015-09-01 07:36:22,0.05,0.27,0.00,24.68,28.92,31.78,14.32,48.47,1006.68,2033.00,3322.77,3172.88,3461.36,599.99,586.91,20.74,0000 0000 0000 0000 000000
2015-09-01 07:41:23,0.06,0.28,0.00,24.70,28.92,31.78,14.36,48.65,1006.55,2033.00,3321.65,3171.97,3460.45,600.08,586.80,20.79,0000 0000 0000 0000 000000
2015-09-01 07:46:25,0.06,0.28,0.00,24.73,28.93,31.76,14.26,48.72,1006.81,2033.00,3320.39,3171.04,3459.30,599.66,586.72,20.84,0000 0000 0000 0000 000000
2015-09-01 07:51:25,0.05,0.28,0.00,24.75,28.95,31.76,14.40,48.64,1006.85,2033.00,3319.23,3170.15,3458.25,600.51,587.25,20.89,0000 0000 0000 0000 000000
2015-09-01 07:56:27,0.05,0.29,0.00,24.77,28.95,31.77,14.33,48.58,1006.86,2033.00,3318.03,3169.18,3457.25,600.27,586.99,20.94,0000 0000 0000 0000 000000
2015-09-01 08:01:28,0.05,0.29,0.00,24.81,28.95,31.76,14.22,48.52,1006.87,2033.00,3316.92,3168.39,3456.27,599.83,586.66,20.99,0000 0000 0000 0000 000000
2015-09-01 08:06:29,0.05,0.29,0.00,24.85,28.96,31.78,14.32,48.70,1006.86,2033.00,3315.76,3167.53,3455.37,600.16,586.73,21.04,0000 0000 0000 0000 000000
2015-09-01 08:11:31,0.05,0.29,0.00,24.89,28.97,31.78,14.31,48.55,1006.87,2033.00,3314.68,3166.67,3454.43,599.97,586.58,21.09,0000 0000 0000 0000 000000
2015-09-01 08:16:32,0.04,0.30,0.00,24.92,28.98,31.78,14.34,48.49,1006.87,2032.99,3313.62,3165.86,3453.47,600.17,586.69,21.14,0000 0000 0000 0000 000000
2015-09-01 08:21:34,0.04,0.30,0.00,24.96,29.00,31.73,14.27,48.36,1006.86,2032.99,3312.60,3165.03,3452.61,599.67,586.15,21.19,0000 0000 0000 0000 000000
2015-09-01 08:26:35,0.05,0.30,0.00,24.99,29.00,31.74,14.26,48.46,1006.85,2032.99,3311.57,3164.15,3451.69,600.04,586.54,21.24,0000 0000 0000 0000 000000
2015-09-01 08:31:37,0.05,0.30,0.00,25.02,29.01,31.75,14.26,48.42,1006.85,2032.98,3310.55,3163.36,3450.79,599.82,586.15,21.29,0000 0000 0000 0000 000000
2015-09-01 08:36:38,0.04,0.31,0.00,25.04,29.02,31.79,14.22,48.43,1006.85,2032.98,3309.55,3162.67,3449.95,599.83,586.13,21.34,0000 0000 0000 0000 000000
2015-09-01 08:41:39,0.04,0.31,0.00,25.05,29.04,31.84,14.23,48.42,1006.85,2032.96,3308.63,3161.90,3449.00,599.80,586.18,21.39,0000 0000 0000 0000 000000
2015-09-01 08:46:41,0.05,0.31,0.00,25.06,29.05,31.87,14.26,48.42,1006.85,2032.98,3307.53,3161.07,3448.09,599.96,586.20,21.44,0000 0000 0000 0000 000000
2015-09-01 08:51:42,0.05,0.31,0.00,25.07,29.05,31.89,14.31,48.69,1006.87,2032.96,3306.59,3160.27,3447.22,600.17,586.49,21.49,0000 0000 0000 0000 000000
2015-09-01 08:56:44,0.05,0.32,0.00,25.06,29.07,31.90,14.28,48.45,1006.87,2032.87,3305.54,3159.54,3446.26,600.15,586.42,21.54,0000 0000 0000 0000 000000
2015-09-01 09:01:45,0.03,0.32,0.00,25.05,29.07,31.92,14.28,48.45,1006.85,2032.89,3304.55,3158.83,3445.48,599.93,586.25,21.59,0000 0000 0000 0000 000000
2015-09-01 09:06:46,0.04,0.32,0.00,25.04,29.07,31.94,14.36,48.48,1006.85,2032.85,3303.52,3157.98,3444.54,600.28,586.50,21.64,0000 0000 0000 0000 000000
2015-09-01 09:11:48,0.04,0.32,0.00,25.02,29.07,31.94,14.29,48.52,1006.85,2032.64,3302.47,3157.11,3443.74,599.90,586.32,21.69,0000 0000 0000 0000 000000
2015-09-01 09:16:49,0.03,0.33,0.00,25.02,29.08,31.94,14.30,48.44,1006.86,2032.65,3301.64,3156.59,3442.97,600.10,586.45,21.74,0000 0000 0000 0000 000000
2015-09-01 09:21:50,0.01,0.33,0.00,25.02,29.08,31.94,14.34,48.45,1006.86,2032.47,3300.70,3155.95,3442.14,600.06,586.31,21.79,0000 0000 0000 0000 000000
2015-09-01 09:26:52,0.04,0.33,0.00,25.01,29.08,31.93,14.24,48.42,1006.87,2032.37,3300.01,3155.15,3441.41,599.65,586.09,21.84,0000 0000 0000 0000 000000
2015-09-01 09:31:53,0.03,0.33,0.00,25.01,29.09,31.92,14.32,48.51,1006.92,2032.58,3299.58,3155.00,3441.02,600.13,586.52,21.89,0000 0000 0000 0000 000000
2015-09-01 09:36:54,-0.00,0.33,0.00,25.00,29.09,31.92,14.31,48.52,1007.22,2032.24,3299.00,3154.51,3440.68,600.11,586.72,21.94,0000 0000 0000 0000 000000
2015-09-01 09:41:55,0.02,0.33,0.00,25.00,29.09,31.91,14.29,48.46,1007.34,2032.21,3298.70,3154.03,3440.06,600.30,586.82,21.99,0000 0000 0000 0000 000000
2015-09-01 09:46:56,0.01,0.33,0.00,25.01,29.09,31.91,14.31,48.42,1007.34,2032.22,3298.03,3153.99,3440.00,600.04,586.72,22.04,0000 0000 0000 0000 000000
2015-09-01 09:51:58,0.04,0.33,0.00,25.00,29.08,31.92,14.25,48.40,1007.41,2032.52,3297.98,3153.95,3439.98,599.98,586.63,22.09,0000 0000 0000 0000 000000
2015-09-01 09:56:59,0.01,0.33,0.00,25.00,29.08,31.90,14.29,48.48,1007.74,2032.72,3297.91,3153.90,3439.98,600.00,586.88,22.14,0000 0000 0000 0000 000000
2015-09-01 10:02:01,-0.02,0.33,0.00,25.00,29.07,31.92,14.26,48.47,1007.83,2032.52,3297.83,3153.77,3439.89,600.09,587.03,22.19,0000 0000 0000 0000 000000
2015-09-01 10:07:02,0.01,0.33,0.00,24.99,29.07,31.90,14.32,48.43,1007.83,2032.58,3297.65,3153.62,3439.72,600.15,587.03,22.24,0000 0000 0000 0000 000000
2015-09-01 10:12:03,0.03,0.34,0.00,25.00,29.07,31.91,14.40,48.45,1007.83,2032.53,3297.19,3153.34,3439.34,600.08,586.86,22.29,0000 0000 0000 0000 000000
2015-09-01 10:17:04,0.02,0.34,0.00,25.00,29.07,31.91,14.39,48.52,1007.83,2032.67,3297.02,3153.12,3439.14,600.47,587.19,22.34,0000 0000 0000 0000 000000
2015-09-01 10:22:05,-0.01,0.34,0.00,25.00,29.07,31.89,14.29,48.34,1007.83,2032.62,3297.01,3153.04,3439.06,599.91,586.79,22.39,0000 0000 0000 0000 000000
2015-09-01 10:27:06,-0.02,0.34,0.00,25.00,29.07,31.92,14.26,48.59,1007.83,2032.55,3297.00,3153.02,3439.01,599.71,586.70,22.44,0000 0000 0000 0000 000000
2015-09-01 10:32:08,0.02,0.34,0.00,25.01,29.07,31.91,14.20,48.61,1007.85,2032.64,3297.00,3153.01,3439.00,599.74,586.73,22.49,0000 0000 0000 0000 000000
2015-09-01 10:37:09,0.01,0.34,0.00,25.02,29.06,31.90,14.25,48.46,1008.00,2032.88,3296.95,3153.00,3439.00,599.99,587.04,22.54,0000 0000 0000 0000 000000
2015-09-01 10:42:11,0.01,0.34,0.00,25.02,29.06,31.90,14.22,48.49,1008.09,2032.94,3296.66,3153.00,3438.99,599.97,586.97,22.59,0000 0000 0000 0000 000000
2015-09-01 10:47:12,0.00,0.34,0.00,25.01,29.05,31.91,14.40,48.56,1008.27,2032.91,3296.13,3152.99,3438.98,600.36,587.50,22.64,0000 0000 0000 0000 000000
2015-09-01 10:52:13,-0.02,0.34,0.00,25.00,29.05,31.91,14.35,48.60,1008.31,2032.73,3296.09,3152.98,3438.93,600.18,587.24,22.69,0000 0000 0000 0000 000000
2015-09-01 10:57:14,0.01,0.34,0.00,25.00,29.05,31.92,14.32,48.68,1008.32,2032.72,3296.10,3152.98,3438.88,599.99,587.09,22.74,0000 0000 0000 0000 000000
2015-09-01 11:02:16,0.00,0.34,0.00,25.00,29.05,31.90,14.29,48.57,1008.48,2032.82,3296.04,3152.98,3438.90,600.00,587.30,22.79,0000 0000 0000 0000 000000
2015-09-01 11:07:17,-0.01,0.34,0.00,25.00,29.05,31.90,14.27,48.63,1008.72,2032.65,3296.02,3152.95,3438.67,599.83,587.26,22.84,0000 0000 0000 0000 000000
2015-09-01 11:12:18,0.00,0.34,0.00,25.00,29.05,31.90,14.26,48.53,1008.80,2032.68,3296.01,3152.97,3438.68,599.68,587.09,22.89,0000 0000 0000 0000 000000
2015-09-01 11:17:19,-0.00,0.34,0.00,25.00,29.03,31.89,14.27,48.79,1008.80,2032.61,3296.02,3152.96,3438.69,599.80,587.31,22.94,0000 0000 0000 0000 000000
2015-09-01 11:22:20,0.00,0.34,0.00,24.99,29.02,31.92,14.28,48.69,1008.82,2032.70,3296.03,3152.98,3438.80,599.86,587.41,22.99,0000 0000 0000 0000 000000
2015-09-01 11:27:21,0.01,0.34,0.00,24.99,29.02,31.91,14.31,48.68,1009.04,2032.75,3296.18,3152.98,3438.91,599.83,587.48,23.04,0000 0000 0000 0000 000000
2015-09-01 11:32:22,-0.01,0.34,0.00,24.97,29.02,31.90,14.32,48.68,1009.28,2032.70,3296.48,3152.99,3438.98,600.39,588.08,23.09,0000 0000 0000 0000 000000
2015-09-01 11:37:24,0.00,0.34,0.00,24.97,29.01,31.91,14.31,48.69,1009.30,2032.75,3296.71,3152.99,3438.98,599.61,587.51,23.14,0000 0000 0000 0000 000000
2015-09-01 11:42:25,-0.01,0.34,0.00,24.96,29.00,31.88,14.30,48.66,1009.31,2032.75,3296.96,3153.01,3438.98,600.05,587.99,23.19,0000 0000 0000 0000 000000
2015-09-01 11:47:26,-0.00,0.34,0.00,24.95,29.00,31.89,14.43,48.76,1009.54,2032.53,3296.98,3153.04,3438.99,600.34,588.36,23.24,0000 0000 0000 0000 000000
2015-09-01 11:52:27,-0.01,0.34,0.00,24.95,29.00,31.89,14.37,48.67,1009.76,2032.58,3296.99,3153.07,3438.99,599.98,588.08,23.29,0000 0000 0000 0000 000000
2015-09-01 11:57:28,-0.02,0.34,0.00,24.92,28.99,31.89,14.34,48.84,1009.79,2032.34,3296.98,3153.09,3438.99,599.77,588.00,23.34,0000 0000 0000 0000 000000
2015-09-01 12:02:29,-0.01,0.33,0.00,24.91,28.97,31.88,14.34,48.92,1009.89,2032.21,3296.97,3153.08,3438.99,599.95,588.35,23.39,0000 0000 0000 0000 000000
2015-09-01 12:07:31,-0.01,0.33,0.00,24.90,28.97,31.88,14.29,48.72,1010.25,2032.22,3296.99,3153.30,3438.99,599.84,588.41,23.44,0000 0000 0000 0000 000000
2015-09-01 12:12:32,0.01,0.33,0.00,24.90,28.97,31.87,14.42,48.76,1010.29,2032.32,3296.99,3153.59,3439.00,600.37,588.98,23.50,0000 0000 0000 0000 000000
2015-09-01 12:17:33,0.01,0.34,0.00,24.88,28.96,31.86,14.34,48.63,1010.36,2032.46,3296.99,3153.72,3439.00,599.68,588.36,23.55,0000 0000 0000 0000 000000
2015-09-01 12:22:34,-0.02,0.33,0.00,24.87,28.95,31.87,14.37,48.79,1010.62,2032.35,3297.00,3153.89,3439.01,600.20,588.79,23.60,0000 0000 0000 0000 000000
2015-09-01 12:27:36,0.00,0.33,0.00,24.86,28.95,31.86,14.25,48.76,1010.75,2032.26,3297.00,3153.84,3439.00,599.80,588.68,23.65,0000 0000 0000 0000 000000
2015-09-01 12:32:37,0.01,0.33,0.00,24.85,28.95,31.89,14.34,49.00,1010.76,2032.35,3297.02,3153.95,3439.03,600.13,589.01,23.70,0000 0000 0000 0000 000000
2015-09-01 12:37:38,0.00,0.34,0.00,24.84,28.93,31.87,14.40,49.04,1010.77,2032.50,3297.02,3153.97,3439.03,599.94,588.95,23.75,0000 0000 0000 0000 000000
2015-09-01 12:42:39,0.02,0.34,0.00,24.82,28.92,31.85,14.38,49.15,1010.78,2032.50,3297.01,3153.97,3439.04,600.02,588.91,23.80,0000 0000 0000 0000 000000
2015-09-01 12:47:40,0.00,0.34,0.00,24.82,28.92,31.86,14.32,49.24,1010.97,2032.57,3297.01,3153.99,3439.04,599.86,588.97,23.85,0000 0000 0000 0000 000000
2015-09-01 12:52:41,-0.01,0.33,0.00,24.80,28.91,31.86,14.41,49.64,1011.21,2032.51,3297.02,3153.99,3439.04,599.82,588.96,23.90,0000 0000 0000 0000 000000
2015-09-01 12:57:42,-0.01,0.34,0.00,24.77,28.90,31.85,14.37,49.34,1011.25,2032.53,3297.03,3153.99,3439.05,600.38,589.80,23.95,0000 0000 0000 0000 000000